Weather in Gorki

Ukraine / Volyn Oblast     51°55′06″N   25°18′55″E
temp.,
°C
wind,
m/s
gust,
m/s
humid.,
%
clouds,
%
prec.,
mm/h
press.,
hPa
HPBL,
m
28 september, tue
tue2800:00+6e310883 0.0 1026213
03:00+6e35893 0.0 102689
06:00+5e33900 0.0 102644
09:00+7e36814 0.0 1027203
12:00+13ese46622 0.0 1027956
15:00+14ese4457100 0.0 10271540
18:00+12e3671100 0.0 1027208
21:00+11e4866100 0.0 1028242
29 september, wed
wed2900:00+10e3667100 0.0 1029126
03:00+10e3766100 0.0 1029154
06:00+9e4875100 0.0 1029219
09:00+10e597980 0.0 1030351
12:00+13ese68605 0.0 10301001
15:00+14se6858100 0.0 10291406
18:00+13se595961 0.0 1028573
21:00+10ese512710 0.0 1029363
30 september, thu
thu3000:00+8ese513770 0.0 1029359
03:00+7ese514792 0.0 1029346
06:00+7se514802 0.0 1029359
09:00+8se614750 0.0 1029427
12:00+13sse7105678 0.0 1029770
15:00+15sse685376 0.0 10281096
18:00+14se4960100 0.0 1028352
21:00+11se5116698 0.0 1028277
1 october, fri
fri100:00+11sse31068100 0.0 1029301
03:00+10s2372100 0.1 102999
06:00+10s1274100 0.0 102935
09:00+10sse2472100 0.1 1030139
12:00+11se2570100 0.1 1030168
15:00+13se266598 0.1 1029374
18:00+14se386149 0.0 1028241
21:00+12se5126053 0.0 1028303
2 october, sat
sat200:00+9se412637 0.0 1027238
03:00+7se411625 0.0 1027193
06:00+7se411610 0.0 1026213
09:00+8sse513595 0.0 1025361
12:00+14sse794651 0.0 1024706
15:00+17sse684486 0.0 1023995
18:00+14sse51154100 0.0 1022321
21:00+10se4136779 0.0 1023276